TimeCDT,TemperatureF,Dew PointF,Humidity,Sea Level PressureIn,VisibilityMPH,Wind Direction,Wind SpeedMPH,Gust SpeedMPH,PrecipitationIn,Events,Conditions,WindDirDegrees,DateUTC
12:15 AM,41.7,19.4,41,30.09,10.0,East,9.2,-,N/A,,Clear,100,2013-05-04 05:15:00
12:35 AM,43.3,19.4,38,30.09,10.0,East,8.1,-,N/A,,Clear,90,2013-05-04 05:35:00
12:55 AM,42.3,19.4,40,30.09,10.0,East,8.1,-,N/A,,Clear,90,2013-05-04 05:55:00
1:15 AM,41.4,19.4,41,30.10,10.0,East,4.6,-,N/A,,Clear,90,2013-05-04 06:15:00
1:35 AM,43.2,18.3,37,30.10,10.0,ENE,5.8,-,N/A,,Clear,70,2013-05-04 06:35:00
1:55 AM,40.3,18.1,41,30.10,10.0,NE,3.5,-,N/A,,Clear,50,2013-05-04 06:55:00
2:15 AM,37.0,17.4,45,30.09,10.0,NE,3.5,-,N/A,,Clear,40,2013-05-04 07:15:00
2:35 AM,34.7,17.1,49,30.08,10.0,North,5.8,-,N/A,,Clear,10,2013-05-04 07:35:00
2:55 AM,34.7,17.2,49,30.08,10.0,North,3.5,-,N/A,,Clear,350,2013-05-04 07:55:00
3:15 AM,33.3,17.1,51,30.07,10.0,NNW,3.5,-,N/A,,Clear,330,2013-05-04 08:15:00
3:35 AM,35.4,17.4,48,30.07,10.0,NW,3.5,-,N/A,,Clear,320,2013-05-04 08:35:00
3:55 AM,33.8,16.3,49,30.08,10.0,WNW,5.8,-,N/A,,Clear,290,2013-05-04 08:55:00
4:15 AM,36.1,18.5,49,30.07,10.0,NW,6.9,-,N/A,,Clear,320,2013-05-04 09:15:00
4:35 AM,33.6,18.0,53,30.07,10.0,NW,5.8,-,N/A,,Clear,320,2013-05-04 09:35:00
4:55 AM,32.5,17.6,54,30.07,10.0,NW,5.8,-,N/A,,Clear,320,2013-05-04 09:55:00
5:15 AM,32.0,17.6,55,30.07,10.0,WNW,5.8,-,N/A,,Clear,300,2013-05-04 10:15:00
5:35 AM,32.0,18.1,57,30.07,10.0,WNW,6.9,-,N/A,,Clear,290,2013-05-04 10:35:00
5:55 AM,32.0,17.6,55,30.08,10.0,NW,8.1,-,N/A,,Clear,310,2013-05-04 10:55:00
6:15 AM,31.5,17.8,57,30.07,10.0,WNW,6.9,-,N/A,,Clear,300,2013-05-04 11:15:00
6:35 AM,31.6,18.1,57,30.08,10.0,West,9.2,-,N/A,,Clear,280,2013-05-04 11:35:00
6:55 AM,32.0,18.1,57,30.08,10.0,WNW,8.1,-,N/A,,Clear,300,2013-05-04 11:55:00
7:15 AM,32.0,18.5,58,30.08,10.0,WNW,6.9,-,N/A,,Clear,290,2013-05-04 12:15:00
7:35 AM,32.5,18.5,56,30.09,10.0,WNW,9.2,-,N/A,,Clear,290,2013-05-04 12:35:00
7:55 AM,36.3,19.8,51,30.09,10.0,NW,6.9,-,N/A,,Clear,310,2013-05-04 12:55:00
8:15 AM,40.1,20.8,46,30.10,10.0,WNW,6.9,-,N/A,,Clear,300,2013-05-04 13:15:00
8:35 AM,44.4,21.7,41,30.10,10.0,NW,5.8,-,N/A,,Clear,310,2013-05-04 13:35:00
8:55 AM,48.2,21.7,35,30.10,10.0,NW,5.8,-,N/A,,Clear,320,2013-05-04 13:55:00
9:15 AM,50.7,21.2,31,30.10,10.0,NW,6.9,-,N/A,,Clear,320,2013-05-04 14:15:00
9:35 AM,52.9,20.3,28,30.10,10.0,NNW,9.2,-,N/A,,Clear,340,2013-05-04 14:35:00
9:55 AM,53.8,19.9,27,30.10,10.0,North,11.5,16.1,N/A,,Clear,10,2013-05-04 14:55:00
10:15 AM,54.7,19.9,26,30.11,10.0,North,11.5,16.1,N/A,,Clear,360,2013-05-04 15:15:00
10:35 AM,55.6,20.7,26,30.10,10.0,NNW,11.5,16.1,N/A,,Clear,340,2013-05-04 15:35:00
10:55 AM,56.5,20.5,25,30.11,10.0,NNW,11.5,17.3,N/A,,Clear,340,2013-05-04 15:55:00
11:15 AM,57.9,20.5,23,30.10,10.0,NNW,10.4,18.4,N/A,,Clear,340,2013-05-04 16:15:00
11:35 AM,58.8,21.9,24,30.10,10.0,North,10.4,17.3,N/A,,Clear,10,2013-05-04 16:35:00
11:55 AM,58.3,22.1,25,30.11,10.0,North,8.1,19.6,N/A,,Clear,360,2013-05-04 16:55:00
12:15 PM,60.1,21.4,23,30.10,10.0,NNE,15.0,19.6,N/A,,Clear,20,2013-05-04 17:15:00
12:35 PM,60.1,21.7,23,30.11,10.0,North,8.1,21.9,N/A,,Clear,350,2013-05-04 17:35:00
12:55 PM,60.4,21.9,23,30.09,10.0,NNE,12.7,19.6,N/A,,Clear,20,2013-05-04 17:55:00
1:15 PM,62.1,22.5,22,30.09,10.0,NNE,12.7,20.7,N/A,,Clear,30,2013-05-04 18:15:00
1:35 PM,62.6,22.1,21,30.08,10.0,NNE,15.0,23.0,N/A,,Clear,30,2013-05-04 18:35:00
1:55 PM,63.1,21.0,20,30.08,10.0,North,15.0,25.3,N/A,,Clear,350,2013-05-04 18:55:00
2:15 PM,64.0,20.7,19,30.08,10.0,North,13.8,21.9,N/A,,Clear,360,2013-05-04 19:15:00
2:35 PM,64.2,21.2,19,30.07,10.0,North,15.0,26.5,N/A,,Clear,10,2013-05-04 19:35:00
2:55 PM,63.9,21.4,20,30.07,10.0,North,12.7,19.6,N/A,,Clear,10,2013-05-04 19:55:00
3:15 PM,64.4,20.8,19,30.07,10.0,North,17.3,25.3,N/A,,Clear,350,2013-05-04 20:15:00
3:35 PM,65.3,20.7,18,30.07,10.0,NNE,10.4,21.9,N/A,,Clear,20,2013-05-04 20:35:00
3:55 PM,65.5,20.1,18,30.07,10.0,NNE,9.2,-,N/A,,Clear,20,2013-05-04 20:55:00
4:15 PM,65.8,20.3,18,30.06,10.0,North,10.4,17.3,N/A,,Clear,360,2013-05-04 21:15:00
4:35 PM,65.7,20.1,18,30.06,10.0,NE,9.2,18.4,N/A,,Clear,40,2013-05-04 21:35:00
4:55 PM,66.0,19.9,17,30.05,10.0,North,8.1,19.6,N/A,,Clear,360,2013-05-04 21:55:00
5:15 PM,65.7,19.9,17,30.05,10.0,North,15.0,20.7,N/A,,Clear,360,2013-05-04 22:15:00
5:35 PM,65.5,19.4,17,30.05,10.0,North,11.5,19.6,N/A,,Clear,10,2013-05-04 22:35:00
5:55 PM,66.2,19.6,17,30.05,10.0,North,10.4,24.2,N/A,,Clear,360,2013-05-04 22:55:00
6:15 PM,65.7,19.0,17,30.06,10.0,North,9.2,20.7,N/A,,Clear,10,2013-05-04 23:15:00
6:35 PM,65.3,19.0,17,30.06,10.0,NNE,9.2,21.9,N/A,,Clear,20,2013-05-04 23:35:00
6:55 PM,64.6,18.5,17,30.06,10.0,NNE,15.0,18.4,N/A,,Clear,20,2013-05-04 23:55:00
7:15 PM,63.9,18.1,17,30.06,10.0,North,12.7,19.6,N/A,,Clear,10,2013-05-05 00:15:00
7:35 PM,63.1,17.8,17,30.06,10.0,North,11.5,-,N/A,,Clear,10,2013-05-05 00:35:00
7:55 PM,61.9,17.2,18,30.07,10.0,NNE,10.4,-,N/A,,Clear,20,2013-05-05 00:55:00
8:15 PM,59.9,15.6,18,30.08,10.0,NE,11.5,-,N/A,,Clear,40,2013-05-05 01:15:00
8:35 PM,57.4,15.3,19,30.09,10.0,NE,9.2,-,N/A,,Clear,40,2013-05-05 01:35:00
8:55 PM,55.6,14.9,20,30.10,10.0,NE,8.1,-,N/A,,Clear,40,2013-05-05 01:55:00
9:15 PM,52.9,14.7,22,30.11,10.0,NE,8.1,-,N/A,,Clear,40,2013-05-05 02:15:00
9:35 PM,52.3,13.1,21,30.12,10.0,NE,6.9,-,N/A,,Clear,40,2013-05-05 02:35:00
9:55 PM,49.3,11.5,22,30.13,10.0,NE,8.1,-,N/A,,Clear,50,2013-05-05 02:55:00
10:15 PM,49.6,8.4,19,30.14,10.0,ENE,9.2,-,N/A,,Clear,60,2013-05-05 03:15:00
10:35 PM,46.0,9.7,23,30.15,10.0,ENE,10.4,-,N/A,,Clear,60,2013-05-05 03:35:00
10:55 PM,47.3,8.6,21,30.15,10.0,NE,8.1,-,N/A,,Clear,50,2013-05-05 03:55:00
11:15 PM,46.8,8.6,21,30.15,10.0,NE,8.1,-,N/A,,Clear,50,2013-05-05 04:15:00
11:35 PM,45.7,9.3,23,30.15,10.0,NE,6.9,-,N/A,,Clear,40,2013-05-05 04:35:00
11:55 PM,44.6,9.9,24,30.16,10.0,NE,5.8,-,N/A,,Clear,40,2013-05-05 04:55:00